Flag for Canada Weather past 2 weeks in Miramichi, New Brunswick, Canada

61 °F

Passing clouds.

Feels Like: 61 °F
Forecast: 37 / 63 °F
Wind: 8 mph from Northeast

Location: Bathurst Airport

Current Time: Oct 6, 2015 at 4:16:31 PM

Latest Report: Oct 6, 2015 at 3:00 PM

Visibility: 15 mi

Pressure: 29.90 "Hg

Humidity: 52%

Dew point: 43 °F

Location of MiramichiLocation

Historic Weather in Miramichi — Graph


Miramichi temperature yesterday

Maximum temperature yesterday: 63 °F (at 3:00 PM)
Minimum temperature yesterday: 34 °F (at 8:00 AM)
Average temperature yesterday: 47 °F

Past Weeks' High & Low Weather Summary

High79 °F (Sep 28, 3:00 PM)100% (Sep 22, 1:00 AM)30.62 "Hg (Sep 22, 1:00 AM)
Low30 °F (Oct 4, 4:00 AM)25% (Sep 26, 4:00 PM)29.90 "Hg (Sep 29, 10:00 PM)
Average52 °F73%30.26 "Hg
* Reported Sep 21 3:00 PM — Oct 6 3:00 PM, Miramichi, Weather by CustomWeather, © 2015

Note: Actual official high and low records may vary slightly from our data, if they occured in-between our weather recording intervals... More about our weather records


Miramichi weather history for previous 24 hours

Time TempWeatherWind HumidityBarometerVisibility
3:00 PM
Tue, Oct 6
61 °FPassing clouds.8 mph52%29.90 "Hg15 mi
2:00 PM61 °FScattered clouds.7 mph55%29.92 "Hg15 mi
1:00 PM61 °FScattered clouds.8 mph55%29.94 "Hg15 mi
12:00 PM61 °FPassing clouds.2 mph52%29.96 "Hg15 mi
11:00 AM57 °FScattered clouds.2 mph63%29.98 "Hg15 mi
10:00 AM50 °FPassing clouds.2 mph82%29.99 "Hg15 mi
9:00 AM43 °FPassing clouds.2 mph93%30.00 "Hg15 mi
8:00 AM36 °FPassing clouds.No wind93%30.01 "Hg15 mi
7:00 AM34 °FPassing clouds.2 mph100%30.01 "Hg15 mi
6:00 AM36 °FClear.No wind93%30.02 "Hg12 mi
5:00 AM36 °FClear.2 mph100%30.02 "Hg12 mi
4:00 AM37 °FPassing clouds.2 mph100%30.03 "Hg12 mi
3:00 AM39 °FPassing clouds.2 mph93%30.05 "Hg10 mi
2:00 AM41 °FPassing clouds.3 mph93%30.06 "Hg12 mi
1:00 AM41 °FClear.3 mph93%30.08 "Hg12 mi
12:00 AM43 °FClear.2 mph100%30.08 "Hg10 mi
11:00 PM
Mon, Oct 5
45 °FClear.2 mph93%30.10 "Hg12 mi
10:00 PM48 °FPassing clouds.2 mph94%30.11 "Hg15 mi
9:00 PM50 °FPassing clouds.2 mph94%30.12 "Hg15 mi
8:00 PM50 °FMostly cloudy.No wind94%30.13 "Hg15 mi
7:00 PM54 °FPartly sunny.2 mph82%30.13 "Hg15 mi
6:00 PM55 °FPartly sunny.2 mph72%30.13 "Hg15 mi
5:00 PM57 °FPartly sunny.3 mph67%30.12 "Hg15 mi
4:00 PM63 °FPartly sunny.5 mph52%30.13 "Hg15 mi
Weather by CustomWeather, © 2015

See weather overviewHow to use our weather pages